Home   Weather   Kuala Lumpur   Past weeks

Flag for Malaysia Past Weather in Kuala Lumpur, Malaysia — Yesterday and Last 2 Weeks

Now
82 °F

Broken clouds.


Feels Like: 91 °F
Forecast: 74 / 89 °F
Wind: 6 mph from West

Location: Sultan Abdul Aziz Shah-Subang

Current Time: Apr 27, 2017 at 9:18:27 pm

Latest Report: Apr 27, 2017 at 8:00 pm


Visibility: N/A

Pressure: 29.83 "Hg

Humidity: 84%

Dew Point: 77 °F

Location of Kuala LumpurLocation

Past Weather in Kuala Lumpur — Graph

°F

Kuala Lumpur Temperature Yesterday

Maximum temperature yesterday: 86 °F (at 11:00 am)
Minimum temperature yesterday: 75 °F (at 2:00 pm)
Average temperature yesterday: 78 °F

High & Low Weather Summary for the Past Weeks

 TemperatureHumidityPressure
High95 °F (Apr 14, 3:00 pm)100% (Apr 14, 3:00 am)29.98 "Hg (Apr 14, 3:00 am)
Low75 °F (Apr 18, 12:00 pm)49% (Apr 23, 5:00 pm)29.71 "Hg (Apr 14, 4:00 pm)
Average82 °F82%29.83 "Hg
* Reported Apr 12 8:00 pm — Apr 27 8:00 pm, Kuala Lumpur, Weather by CustomWeather, © 2017

Note: Actual official high and low records may vary slightly from our data, if they occured in-between our weather recording intervals... More about our weather records

Advertising

Kuala Lumpur Weather History for the Previous 24 Hours

Scroll right to see more
 ConditionsComfort  
Time TempWeatherWind HumidityBarometerVisibility
8:00 pm
Thu, Apr 27
82 °FBroken clouds.6 mph84%29.83 "HgN/A
7:00 pm84 °FPartly sunny.8 mph79%29.77 "HgN/A
6:00 pm88 °FPartly sunny.9 mph66%29.74 "HgN/A
5:00 pm86 °FBroken clouds.8 mph70%29.74 "HgN/A
4:00 pm88 °FBroken clouds.8 mph66%29.77 "HgN/A
3:00 pm88 °FBroken clouds.7 mph66%29.80 "HgN/A
2:00 pm91 °FBroken clouds.8 mph59%29.83 "HgN/A
1:00 pm90 °FBroken clouds.8 mph59%29.86 "HgN/A
12:00 pm88 °FBroken clouds.8 mph66%29.89 "HgN/A
11:00 am84 °FPartly sunny.3 mph70%29.89 "HgN/A
10:00 am81 °FPartly sunny.3 mph79%29.89 "HgN/A
9:00 am79 °FBroken clouds.No wind84%29.89 "Hg4 mi
8:00 am77 °FPartly cloudy.1 mph94%29.86 "HgN/A
7:00 am75 °FPartly cloudy.No wind94%29.86 "Hg5 mi
6:00 am75 °FPartly cloudy.No wind94%29.83 "Hg5 mi
5:00 am75 °FPartly cloudy.1 mph94%29.83 "Hg5 mi
4:00 am75 °FPartly cloudy.1 mph94%29.83 "Hg4 mi
3:00 am77 °FPartly cloudy.1 mph94%29.83 "Hg4 mi
2:00 am77 °FPartly cloudy.1 mph94%29.86 "Hg4 mi
1:00 am77 °FPartly cloudy.No wind94%29.89 "Hg4 mi
12:00 am77 °FPartly cloudy.1 mph94%29.92 "Hg6 mi
11:00 pm
Wed, Apr 26
77 °FPartly cloudy.1 mph94%29.89 "Hg6 mi
10:00 pm77 °FPassing clouds.1 mph94%29.89 "HgN/A
9:00 pm77 °FPartly cloudy.No wind89%29.86 "HgN/A
Weather by CustomWeather, © 2017

See weather overviewHow to use our weather pages